QPF
0.03 0.03 0.03 0.03 0.03 0.03 0.02 0.02 0.03 0.02 0.02 0.01 0.01 0.01 0.01 0.01 0.02 0.02 0.02 0.02 0.01 0.01 0.01 0.01 0.01 0.00 0.00 0.00 0.00 0.00 0.00 0.01 0.01 0.01 0.01 0.02 0.02 0.03
0.02 0.03 0.03 0.03 0.03 0.03 0.03 0.02 0.03 0.03 0.02 0.02 0.01 0.01 0.01 0.02 0.03 0.03 0.03 0.03 0.02 0.01 0.01 0.01 0.00 0.00 0.00 0.00 0.00 0.00 0.00 0.01 0.01 0.01 0.01 0.01 0.02 0.02
0.02 0.02 0.03 0.03 0.03 0.03 0.03 0.03 0.02 0.02 0.02 0.02 0.02 0.02 0.03 0.03 0.04 0.04 0.03 0.03 0.03 0.01 0.01 0.00 0.00 0.00 0.00 0.00 0.00 0.00 0.00 0.01 0.01 0.01 0.01 0.01 0.02 0.02
0.02 0.02 0.02 0.02 0.02 0.02 0.03 0.03 0.03 0.03 0.03 0.03 0.02 0.02 0.02 0.03 0.03 0.03 0.03 0.03 0.02 0.02 0.01 0.01 0.00 0.00 0.00 0.00 0.00 0.00 0.00 0.00 0.00 0.00 0.01 0.01 0.02 0.02
0.01 0.01 0.01 0.01 0.01 0.01 0.02 0.02 0.02 0.03 0.03 0.04 0.03 0.02 0.02 0.02 0.01 0.02 0.02 0.02 0.02 0.02 0.02 0.01 0.00 0.00 0.00 0.00 0.00 0.00 0.00 0.00 0.00 0.01 0.01 0.01 0.01 0.02
0.01 0.01 0.00 0.00 0.00 0.01 0.01 0.01 0.01 0.02 0.02 0.03 0.03 0.02 0.02 0.01 0.01 0.02 0.02 0.02 0.02 0.02 0.02 0.01 0.01 0.01 0.00 0.00 0.00 0.00 0.00 0.00 0.00 0.01 0.01 0.01 0.01 0.01
0.01 0.00 0.00 0.01 0.00 0.01 0.01 0.01 0.01 0.02 0.02 0.02 0.02 0.02 0.02 0.02 0.02 0.02 0.02 0.02 0.02 0.02 0.02 0.02 0.01 0.01 0.00 0.00 0.00 0.00 0.00 0.00 0.01 0.01 0.01 0.01 0.01 0.01
0.01 0.01 0.00 0.01 0.01 0.01 0.01 0.01 0.01 0.02 0.02 0.02 0.02 0.02 0.02 0.01 0.01 0.02 0.02 0.02 0.03 0.02 0.01 0.02 0.01 0.01 0.01 0.00 0.00 0.00 0.01 0.01 0.01 0.01 0.01 0.01 0.01 0.02
0.00 0.00 0.00 0.00 0.00 0.00 0.01 0.01 0.01 0.01 0.01 0.01 0.01 0.01 0.01 0.01 0.02 0.02 0.02 0.02 0.03 0.02 0.02 0.02 0.02 0.01 0.01 0.00 0.01 0.00 0.00 0.01 0.01 0.01 0.02 0.02 0.03 0.03
0.00 0.00 0.00 0.00 0.00 0.01 0.01 0.01 0.01 0.01 0.01 0.01 0.01 0.01 0.01 0.01 0.01 0.01 0.02 0.01 0.01 0.01 0.02 0.02 0.01 0.01 0.01 0.01 0.01 0.01 0.01 0.01 0.01 0.01 0.02 0.02 0.03 0.04
0.00 0.00 0.00 0.00 0.01 0.01 0.01 0.01 0.01 0.00 0.01 0.01 0.01 0.01 0.01 0.01 0.01 0.02 0.03 0.03 0.02 0.02 0.02 0.02 0.02 0.01 0.01 0.01 0.01 0.01 0.01 0.01 0.01 0.02 0.02 0.03 0.03 0.02
0.00 0.00 0.00 0.00 0.01 0.01 0.01 0.01 0.01 0.01 0.01 0.01 0.01 0.02 0.02 0.01 0.02 0.02 0.02 0.03 0.03 0.03 0.02 0.02 0.02 0.02 0.02 0.02 0.01 0.01 0.01 0.02 0.02 0.02 0.02 0.02 0.02 0.02
0.01 0.01 0.00 0.01 0.01 0.01 0.01 0.01 0.01 0.01 0.01 0.02 0.02 0.02 0.02 0.02 0.02 0.02 0.02 0.02 0.03 0.03 0.02 0.02 0.02 0.02 0.02 0.02 0.02 0.01 0.01 0.01 0.01 0.02 0.02 0.02 0.02 0.02
0.01 0.01 0.01 0.02 0.01 0.01 0.01 0.01 0.02 0.02 0.02 0.02 0.03 0.03 0.03 0.03 0.02 0.02 0.02 0.02 0.02 0.02 0.02 0.02 0.03 0.03 0.03 0.03 0.02 0.02 0.01 0.01 0.01 0.01 0.01 0.02 0.02 0.02
0.01 0.02 0.02 0.02 0.02 0.01 0.01 0.01 0.02 0.02 0.02 0.03 0.03 0.03 0.03 0.03 0.03 0.03 0.03 0.03 0.03 0.03 0.04 0.03 0.03 0.03 0.04 0.04 0.03 0.02 0.02 0.01 0.01 0.01 0.01 0.01 0.01 0.02
0.01 0.01 0.01 0.02 0.02 0.01 0.01 0.01 0.02 0.02 0.02 0.02 0.03 0.03 0.03 0.03 0.03 0.03 0.03 0.03 0.04 0.04 0.04 0.04 0.03 0.04 0.04 0.03 0.03 0.02 0.02 0.02 0.01 0.01 0.01 0.01 0.01 0.02
0.01 0.01 0.01 0.01 0.01 0.01 0.01 0.01 0.01 0.01 0.02 0.02 0.03 0.03 0.03 0.03 0.03 0.03 0.03 0.03 0.04 0.04 0.04 0.03 0.03 0.03 0.03 0.03 0.03 0.02 0.02 0.01 0.01 0.01 0.01 0.01 0.02 0.02
0.01 0.01 0.01 0.01 0.01 0.01 0.01 0.01 0.01 0.01 0.02 0.02 0.02 0.03 0.03 0.03 0.03 0.03 0.03 0.03 0.04 0.04 0.03 0.03 0.03 0.03 0.03 0.03 0.02 0.02 0.01 0.01 0.01 0.01 0.01 0.03 0.02 0.02
0.01 0.01 0.01 0.01 0.01 0.01 0.01 0.01 0.01 0.01 0.01 0.02 0.02 0.03 0.03 0.03 0.03 0.03 0.03 0.03 0.03 0.03 0.03 0.03 0.03 0.03 0.03 0.02 0.01 0.01 0.02 0.02 0.01 0.01 0.01 0.03 0.04 0.03
0.01 0.01 0.01 0.01 0.01 0.01 0.01 0.01 0.01 0.01 0.01 0.02 0.02 0.03 0.03 0.03 0.04 0.04 0.03 0.03 0.03 0.03 0.02 0.02 0.02 0.03 0.03 0.03 0.02 0.01 0.01 0.02 0.02 0.02 0.02 0.03 0.03 0.02
0.01 0.01 0.01 0.01 0.01 0.01 0.01 0.01 0.01 0.01 0.01 0.02 0.02 0.02 0.02 0.03 0.03 0.03 0.03 0.02 0.03 0.03 0.02 0.02 0.02 0.02 0.02 0.03 0.02 0.02 0.01 0.02 0.03 0.03 0.04 0.04 0.03 0.02
0.01 0.01 0.01 0.01 0.01 0.01 0.01 0.01 0.02 0.02 0.01 0.02 0.02 0.02 0.02 0.02 0.02 0.02 0.02 0.02 0.02 0.02 0.02 0.01 0.01 0.02 0.02 0.03 0.02 0.02 0.02 0.02 0.02 0.03 0.04 0.05 0.06 0.07
0.01 0.01 0.01 0.01 0.01 0.01 0.01 0.01 0.01 0.01 0.01 0.01 0.01 0.01 0.02 0.02 0.02 0.02 0.02 0.02 0.02 0.01 0.01 0.01 0.01 0.01 0.01 0.02 0.02 0.02 0.02 0.02 0.03 0.03 0.03 0.05 0.06 0.08
MSLP
1021.72 1021.74 1021.80 1021.91 1022.08 1022.28 1022.52 1022.78 1023.07 1023.37 1023.69 1024.03 1024.37 1024.71 1025.04 1025.33 1025.59 1025.79 1025.93 1026.01 1026.04 1026.03 1025.98 1025.92 1025.83 1025.74 1025.63 1025.51 1025.36 1025.18 1024.98 1024.76 1024.53 1024.29 1024.06 1023.84 1023.64 1023.45
1021.99 1022.01 1022.06 1022.15 1022.28 1022.45 1022.65 1022.87 1023.13 1023.41 1023.72 1024.05 1024.40 1024.75 1025.09 1025.41 1025.68 1025.90 1026.06 1026.17 1026.21 1026.22 1026.19 1026.13 1026.07 1025.99 1025.90 1025.80 1025.69 1025.54 1025.38 1025.20 1024.99 1024.77 1024.55 1024.32 1024.10 1023.88
1022.25 1022.30 1022.37 1022.45 1022.56 1022.70 1022.86 1023.04 1023.26 1023.51 1023.79 1024.11 1024.44 1024.79 1025.13 1025.44 1025.72 1025.95 1026.12 1026.23 1026.28 1026.29 1026.26 1026.22 1026.17 1026.11 1026.05 1025.98 1025.91 1025.82 1025.71 1025.57 1025.42 1025.24 1025.04 1024.83 1024.61 1024.37
1022.48 1022.57 1022.67 1022.76 1022.86 1022.98 1023.11 1023.26 1023.44 1023.65 1023.90 1024.19 1024.50 1024.83 1025.16 1025.47 1025.74 1025.96 1026.13 1026.23 1026.28 1026.29 1026.26 1026.22 1026.17 1026.13 1026.09 1026.06 1026.03 1025.99 1025.94 1025.87 1025.77 1025.64 1025.49 1025.31 1025.10 1024.87
1022.61 1022.76 1022.89 1023.01 1023.13 1023.23 1023.34 1023.47 1023.62 1023.80 1024.02 1024.28 1024.57 1024.87 1025.18 1025.48 1025.74 1025.96 1026.12 1026.22 1026.26 1026.26 1026.23 1026.19 1026.14 1026.11 1026.09 1026.08 1026.09 1026.09 1026.09 1026.07 1026.03 1025.95 1025.84 1025.69 1025.51 1025.30
1022.60 1022.80 1022.98 1023.13 1023.26 1023.38 1023.50 1023.61 1023.75 1023.91 1024.11 1024.34 1024.61 1024.89 1025.19 1025.47 1025.73 1025.94 1026.10 1026.20 1026.24 1026.24 1026.21 1026.16 1026.11 1026.08 1026.07 1026.08 1026.10 1026.14 1026.17 1026.19 1026.19 1026.15 1026.08 1025.96 1025.80 1025.60
1022.38 1022.63 1022.85 1023.05 1023.22 1023.37 1023.50 1023.63 1023.77 1023.93 1024.12 1024.34 1024.59 1024.87 1025.15 1025.43 1025.68 1025.89 1026.06 1026.16 1026.21 1026.22 1026.20 1026.15 1026.11 1026.08 1026.07 1026.08 1026.11 1026.16 1026.21 1026.25 1026.26 1026.25 1026.19 1026.09 1025.94 1025.76
1021.93 1022.22 1022.49 1022.73 1022.95 1023.14 1023.32 1023.48 1023.64 1023.81 1024.01 1024.23 1024.48 1024.76 1025.04 1025.32 1025.58 1025.80 1025.98 1026.10 1026.17 1026.20 1026.19 1026.16 1026.13 1026.10 1026.09 1026.10 1026.13 1026.17 1026.22 1026.25 1026.27 1026.25 1026.20 1026.10 1025.95 1025.77
1021.26 1021.57 1021.87 1022.16 1022.44 1022.69 1022.92 1023.13 1023.33 1023.54 1023.76 1024.00 1024.26 1024.54 1024.83 1025.12 1025.39 1025.63 1025.83 1025.98 1026.09 1026.14 1026.16 1026.16 1026.14 1026.13 1026.12 1026.13 1026.15 1026.18 1026.21 1026.23 1026.23 1026.20 1026.14 1026.03 1025.88 1025.70
1020.37 1020.69 1021.03 1021.37 1021.70 1022.01 1022.31 1022.58 1022.84 1023.10 1023.36 1023.62 1023.91 1024.20 1024.50 1024.81 1025.09 1025.36 1025.59 1025.78 1025.92 1026.02 1026.08 1026.11 1026.13 1026.13 1026.14 1026.15 1026.16 1026.18 1026.20 1026.20 1026.18 1026.13 1026.05 1025.93 1025.77 1025.59
1019.36 1019.68 1020.03 1020.41 1020.79 1021.16 1021.52 1021.86 1022.18 1022.49 1022.80 1023.11 1023.42 1023.73 1024.06 1024.38 1024.69 1024.98 1025.24 1025.47 1025.65 1025.80 1025.91 1025.99 1026.04 1026.08 1026.11 1026.13 1026.16 1026.17 1026.18 1026.17 1026.13 1026.07 1025.98 1025.85 1025.69 1025.50
1018.29 1018.60 1018.96 1019.35 1019.77 1020.19 1020.61 1021.01 1021.39 1021.76 1022.11 1022.46 1022.80 1023.15 1023.49 1023.84 1024.17 1024.49 1024.79 1025.06 1025.29 1025.49 1025.65 1025.77 1025.88 1025.96 1026.02 1026.07 1026.11 1026.13 1026.14 1026.12 1026.09 1026.02 1025.92 1025.79 1025.64 1025.45
1017.24 1017.53 1017.88 1018.28 1018.71 1019.16 1019.61 1020.06 1020.49 1020.90 1021.30 1021.69 1022.08 1022.46 1022.84 1023.21 1023.57 1023.93 1024.26 1024.56 1024.84 1025.08 1025.29 1025.47 1025.62 1025.75 1025.85 1025.93 1025.99 1026.04 1026.05 1026.05 1026.02 1025.96 1025.87 1025.75 1025.60 1025.43
1016.27 1016.53 1016.85 1017.23 1017.66 1018.11 1018.57 1019.04 1019.50 1019.95 1020.39 1020.82 1021.25 1021.67 1022.09 1022.49 1022.90 1023.28 1023.65 1024.00 1024.31 1024.60 1024.85 1025.08 1025.27 1025.44 1025.59 1025.70 1025.79 1025.86 1025.90 1025.91 1025.89 1025.85 1025.77 1025.66 1025.53 1025.38
1015.40 1015.61 1015.89 1016.23 1016.62 1017.05 1017.51 1017.97 1018.45 1018.92 1019.39 1019.86 1020.32 1020.79 1021.25 1021.70 1022.14 1022.57 1022.98 1023.36 1023.71 1024.04 1024.33 1024.60 1024.83 1025.04 1025.21 1025.36 1025.48 1025.57 1025.63 1025.66 1025.66 1025.62 1025.56 1025.47 1025.36 1025.22
1014.59 1014.75 1014.98 1015.27 1015.61 1016.00 1016.42 1016.86 1017.33 1017.81 1018.30 1018.80 1019.30 1019.81 1020.32 1020.82 1021.30 1021.77 1022.22 1022.64 1023.03 1023.38 1023.71 1024.01 1024.27 1024.51 1024.71 1024.89 1025.03 1025.14 1025.22 1025.26 1025.27 1025.25 1025.19 1025.11 1025.00 1024.88
1013.79 1013.91 1014.08 1014.31 1014.59 1014.92 1015.29 1015.70 1016.15 1016.62 1017.12 1017.64 1018.18 1018.73 1019.28 1019.82 1020.35 1020.86 1021.35 1021.80 1022.22 1022.61 1022.96 1023.28 1023.57 1023.83 1024.06 1024.26 1024.42 1024.55 1024.64 1024.69 1024.70 1024.68 1024.62 1024.54 1024.43 1024.30
1012.93 1013.01 1013.13 1013.31 1013.53 1013.80 1014.12 1014.49 1014.91 1015.36 1015.86 1016.39 1016.95 1017.53 1018.11 1018.69 1019.25 1019.80 1020.32 1020.80 1021.25 1021.66 1022.04 1022.39 1022.70 1022.98 1023.24 1023.45 1023.64 1023.78 1023.88 1023.94 1023.96 1023.93 1023.87 1023.77 1023.65 1023.51
1011.94 1012.00 1012.09 1012.22 1012.39 1012.62 1012.89 1013.22 1013.61 1014.04 1014.53 1015.05 1015.61 1016.20 1016.80 1017.40 1017.99 1018.56 1019.11 1019.61 1020.09 1020.53 1020.93 1021.31 1021.65 1021.96 1022.24 1022.48 1022.69 1022.86 1022.98 1023.05 1023.07 1023.04 1022.97 1022.86 1022.73 1022.57
1010.81 1010.85 1010.92 1011.03 1011.17 1011.37 1011.61 1011.91 1012.26 1012.67 1013.13 1013.64 1014.19 1014.77 1015.37 1015.97 1016.57 1017.15 1017.70 1018.24 1018.73 1019.20 1019.63 1020.04 1020.42 1020.77 1021.09 1021.37 1021.62 1021.82 1021.97 1022.06 1022.10 1022.08 1022.01 1021.89 1021.75 1021.57
1009.54 1009.58 1009.65 1009.75 1009.89 1010.07 1010.29 1010.56 1010.89 1011.27 1011.70 1012.17 1012.69 1013.24 1013.82 1014.41 1014.99 1015.57 1016.14 1016.68 1017.21 1017.70 1018.18 1018.63 1019.06 1019.46 1019.83 1020.17 1020.47 1020.72 1020.91 1021.04 1021.11 1021.11 1021.05 1020.94 1020.78 1020.60
1008.20 1008.23 1008.31 1008.41 1008.55 1008.73 1008.94 1009.20 1009.49 1009.84 1010.23 1010.67 1011.15 1011.66 1012.20 1012.75 1013.32 1013.89 1014.46 1015.02 1015.57 1016.11 1016.63 1017.13 1017.62 1018.09 1018.53 1018.93 1019.29 1019.60 1019.85 1020.03 1020.14 1020.17 1020.14 1020.04 1019.89 1019.71
1006.87 1006.89 1006.96 1007.07 1007.21 1007.38 1007.58 1007.82 1008.09 1008.40 1008.75 1009.14 1009.57 1010.04 1010.54 1011.06 1011.61 1012.17 1012.74 1013.32 1013.90 1014.48 1015.06 1015.62 1016.18 1016.71 1017.22 1017.70 1018.13 1018.50 1018.81 1019.05 1019.21 1019.29 1019.29 1019.22 1019.09 1018.91
Thickness
5504 5502 5500 5498 5496 5494 5491 5489 5487 5487 5489 5490 5489 5489 5488 5487 5486 5486 5486 5487 5487 5487 5487 5486 5485 5484 5484 5483 5483 5483 5483 5484 5485 5486 5487 5490 5492 5494
5493 5491 5489 5487 5485 5483 5480 5478 5475 5474 5475 5478 5477 5476 5475 5475 5474 5475 5475 5476 5476 5476 5476 5475 5473 5472 5471 5471 5471 5470 5470 5471 5472 5473 5475 5477 5479 5480
5481 5480 5478 5476 5473 5471 5469 5467 5465 5463 5462 5465 5465 5465 5464 5463 5463 5463 5464 5465 5465 5465 5464 5463 5461 5460 5460 5459 5458 5458 5458 5458 5459 5460 5462 5464 5466 5468
5470 5468 5467 5465 5463 5461 5458 5456 5454 5452 5450 5451 5452 5452 5452 5452 5452 5452 5452 5453 5453 5453 5452 5451 5450 5449 5448 5447 5446 5446 5446 5446 5447 5447 5449 5451 5453 5454
5460 5458 5456 5454 5452 5450 5447 5446 5444 5442 5440 5439 5440 5440 5440 5441 5441 5441 5441 5441 5441 5441 5440 5440 5439 5438 5437 5436 5436 5435 5435 5435 5436 5436 5437 5438 5440 5442
5449 5447 5445 5443 5441 5439 5437 5435 5433 5431 5429 5428 5428 5428 5428 5429 5428 5427 5428 5429 5429 5429 5429 5428 5428 5427 5426 5426 5426 5425 5424 5424 5425 5425 5426 5427 5429 5430
5439 5437 5435 5433 5432 5429 5427 5425 5423 5420 5419 5417 5417 5417 5416 5415 5414 5414 5414 5415 5417 5417 5417 5417 5417 5417 5416 5415 5414 5414 5414 5414 5414 5414 5415 5417 5418 5419
5428 5426 5425 5423 5421 5420 5418 5416 5414 5411 5409 5408 5407 5405 5405 5404 5403 5402 5401 5401 5404 5406 5403 5405 5405 5405 5405 5404 5404 5405 5405 5404 5404 5404 5405 5406 5407 5408
5418 5417 5415 5414 5412 5409 5408 5407 5405 5403 5402 5399 5397 5396 5395 5394 5392 5391 5390 5389 5390 5391 5391 5394 5394 5394 5395 5394 5394 5394 5394 5394 5394 5394 5395 5396 5397 5398
5409 5408 5406 5404 5403 5401 5399 5397 5395 5394 5393 5390 5389 5388 5386 5385 5383 5382 5380 5379 5380 5380 5379 5380 5383 5384 5385 5385 5384 5384 5383 5383 5383 5384 5385 5385 5386 5387
5400 5399 5397 5396 5395 5393 5390 5388 5387 5385 5383 5382 5381 5379 5378 5376 5374 5372 5370 5368 5370 5371 5369 5369 5372 5372 5374 5375 5375 5374 5373 5372 5372 5373 5374 5375 5376 5377
5390 5390 5388 5387 5387 5384 5382 5379 5377 5376 5374 5373 5372 5370 5369 5367 5365 5362 5360 5358 5358 5360 5360 5358 5359 5359 5361 5365 5365 5363 5362 5362 5362 5363 5364 5365 5366 5367
5381 5381 5380 5379 5378 5377 5374 5372 5370 5368 5366 5364 5363 5362 5361 5359 5357 5354 5352 5350 5349 5349 5350 5348 5348 5348 5346 5350 5354 5353 5353 5352 5352 5353 5353 5355 5356 5357
5372 5371 5372 5371 5370 5368 5366 5365 5363 5360 5357 5355 5354 5353 5352 5351 5349 5347 5345 5343 5342 5341 5341 5340 5339 5339 5338 5338 5341 5344 5344 5343 5343 5344 5344 5345 5346 5347
5363 5363 5362 5361 5360 5358 5357 5355 5353 5350 5349 5347 5345 5344 5343 5342 5341 5339 5338 5337 5336 5335 5334 5333 5332 5332 5330 5330 5331 5333 5334 5335 5335 5335 5336 5337 5338 5339
5353 5353 5353 5352 5350 5349 5348 5346 5343 5341 5340 5338 5337 5335 5334 5333 5332 5331 5330 5330 5329 5329 5328 5327 5326 5325 5325 5325 5324 5325 5325 5325 5327 5328 5328 5330 5331 5332
5343 5342 5341 5340 5340 5339 5338 5337 5335 5333 5331 5330 5329 5328 5327 5326 5325 5324 5323 5321 5320 5320 5321 5321 5320 5320 5320 5320 5320 5320 5319 5318 5319 5321 5322 5324 5325 5326
5334 5333 5332 5331 5330 5329 5328 5327 5326 5325 5323 5322 5321 5320 5319 5319 5318 5317 5316 5314 5313 5313 5313 5313 5314 5316 5316 5316 5316 5315 5313 5313 5314 5315 5315 5317 5320 5322
5324 5323 5323 5322 5320 5319 5318 5317 5317 5316 5315 5314 5313 5312 5312 5311 5311 5310 5310 5308 5308 5307 5307 5307 5307 5307 5307 5308 5309 5309 5307 5307 5308 5310 5310 5311 5314 5317
5315 5314 5313 5312 5311 5310 5309 5308 5308 5308 5307 5306 5306 5305 5305 5304 5304 5304 5303 5302 5302 5301 5301 5301 5300 5300 5299 5299 5300 5302 5303 5302 5303 5305 5307 5308 5310 5313
5306 5305 5304 5303 5302 5301 5300 5300 5300 5299 5299 5299 5299 5299 5298 5298 5298 5298 5297 5296 5296 5295 5295 5296 5295 5295 5294 5294 5294 5297 5299 5299 5299 5300 5301 5303 5305 5308
5297 5296 5295 5294 5294 5293 5293 5292 5292 5292 5292 5292 5292 5292 5292 5292 5292 5292 5291 5290 5290 5290 5290 5290 5291 5291 5290 5290 5290 5292 5294 5296 5297 5297 5298 5298 5298 5301
5290 5289 5288 5287 5286 5286 5285 5285 5285 5285 5285 5284 5284 5285 5285 5286 5286 5286 5285 5285 5285 5285 5285 5286 5286 5286 5286 5286 5285 5287 5288 5290 5292 5294 5296 5297 5299 5300